TimeCDT,TemperatureF,Dew PointF,Humidity,Sea Level PressureIn,VisibilityMPH,Wind Direction,Wind SpeedMPH,Gust SpeedMPH,PrecipitationIn,Events,Conditions,WindDirDegrees,DateUTC
12:58 AM,70.2,69.8,99,30.09,10.0,South,3.5,-,N/A,,Clear,180,2013-08-22 05:58:00
1:58 AM,70.5,70.2,99,30.07,10.0,South,2.3,-,N/A,,Clear,180,2013-08-22 06:58:00
2:58 AM,70.5,70.0,98,30.06,10.0,Calm,Calm,-,N/A,,Clear,0,2013-08-22 07:58:00
3:58 AM,70.0,69.6,99,30.09,10.0,Calm,Calm,-,N/A,,Clear,0,2013-08-22 08:58:00
4:58 AM,68.9,68.7,99,30.09,10.0,SSE,2.3,-,N/A,,Partly Cloudy,160,2013-08-22 09:58:00
5:08 AM,68.0,68.0,100,30.09,8.0,SE,2.3,-,N/A,,Partly Cloudy,140,2013-08-22 10:08:00
5:18 AM,68.0,68.0,100,30.08,9.0,SE,2.3,-,N/A,,Clear,130,2013-08-22 10:18:00
5:58 AM,67.8,67.8,100,30.08,10.0,SSE,3.5,-,N/A,,Clear,150,2013-08-22 10:58:00
6:58 AM,68.9,68.5,99,30.09,10.0,SSE,4.6,-,N/A,,Clear,160,2013-08-22 11:58:00
7:58 AM,72.3,72.0,99,30.11,10.0,South,4.6,-,N/A,,Partly Cloudy,180,2013-08-22 12:58:00
8:58 AM,77.4,71.4,82,30.10,10.0,SW,8.1,-,N/A,,Clear,220,2013-08-22 13:58:00
9:58 AM,81.7,72.5,74,30.10,10.0,SW,6.9,-,N/A,,Clear,230,2013-08-22 14:58:00
10:58 AM,86.5,71.1,60,30.10,10.0,WSW,9.2,-,N/A,,Clear,250,2013-08-22 15:58:00
11:58 AM,88.9,71.6,56,30.09,10.0,WNW,10.4,-,N/A,,Partly Cloudy,300,2013-08-22 16:58:00
12:58 PM,90.5,70.9,52,30.08,10.0,NW,6.9,-,N/A,,Scattered Clouds,320,2013-08-22 17:58:00
1:58 PM,89.8,71.2,54,30.07,10.0,Variable,4.6,-,N/A,,Scattered Clouds,0,2013-08-22 18:58:00
2:58 PM,90.3,70.7,52,30.06,10.0,North,6.9,-,N/A,,Scattered Clouds,10,2013-08-22 19:58:00
3:58 PM,89.4,71.1,55,30.04,10.0,NNE,3.5,-,N/A,,Clear,20,2013-08-22 20:58:00
4:58 PM,89.4,71.8,56,30.03,10.0,NNE,3.5,-,N/A,,Clear,30,2013-08-22 21:58:00
5:58 PM,86.4,73.8,66,30.02,10.0,ENE,3.5,-,N/A,,Clear,60,2013-08-22 22:58:00
6:58 PM,85.1,74.3,70,30.02,10.0,Calm,Calm,-,N/A,,Clear,0,2013-08-22 23:58:00
7:58 PM,80.6,76.3,87,30.02,10.0,NW,1.2,-,N/A,,Clear,320,2013-08-23 00:58:00
8:58 PM,78.4,77.2,96,30.03,10.0,Calm,Calm,-,N/A,,Clear,0,2013-08-23 01:58:00
9:58 PM,77.4,76.5,97,30.04,10.0,Calm,Calm,-,N/A,,Scattered Clouds,0,2013-08-23 02:58:00
10:58 PM,77.5,75.0,92,30.05,10.0,North,1.2,-,N/A,,Overcast,10,2013-08-23 03:58:00
11:58 PM,74.7,74.3,99,30.05,10.0,NNW,2.3,-,N/A,,Clear,330,2013-08-23 04:58:00